CW3518 Weather Reports


time (UTC)temp
F
wind
direction
speed
knots
gust
knots
rain 1hr
in
rain 24hr
in
rain mn
in
humidity
%
barometer
mb
20211205110511 54 199 6.1 7.8 0.00 0.00 0.00 80 1014.7
20211205110011 54 198 6.1 7.8 0.00 0.00 0.00 80 1014.8
20211205105511 54 200 7.8 7.8 0.00 0.00 0.00 80 1014.8
20211205105011 54 199 7.0 7.0 0.00 0.00 0.00 80 1014.9
20211205104511 53 195 6.1 7.0 0.00 0.00 0.00 81 1015.0
20211205104010 53 195 6.1 7.0 0.00 0.00 0.00 81 1015.1
20211205103511 53 199 6.1 7.0 0.00 0.00 0.00 80 1015.1
20211205103011 53 193 6.1 7.8 0.00 0.00 0.00 79 1015.1
20211205102511 53 190 6.1 7.8 0.00 0.00 0.00 79 1015.2
20211205102010 53 183 4.3 7.8 0.00 0.00 0.00 80 1015.2
20211205101511 53 167 5.2 7.0 0.00 0.00 0.00 83 1015.1
20211205101011 53 155 7.0 7.0 0.00 0.02 0.00 83 1015.2
20211205100510 52 217 2.6 5.2 0.00 0.04 0.00 83 1015.1
20211205100010 52 212 2.6 5.2 0.00 0.04 0.00 84 1015.1
20211205095511 52 195 4.3 5.2 0.00 0.04 0.00 84 1015.3
20211205095011 51 218 2.6 5.2 0.00 0.04 0.00 84 1015.3
20211205094511 51 235 2.6 5.2 0.00 0.04 0.00 85 1015.3
20211205094010 51 198 4.3 5.2 0.00 0.04 0.00 86 1015.3
20211205093511 50 198 4.3 4.3 0.00 0.04 0.00 85 1015.4
20211205093010 50 254 2.6 3.5 0.00 0.04 0.00 85 1015.3
20211205092511 50 223 2.6 3.5 0.00 0.04 0.00 85 1015.5
20211205092011 50 274 2.6 4.3 0.00 0.04 0.00 85 1015.5
20211205091511 50 272 4.3 5.2 0.00 0.04 0.00 86 1015.5
20211205091011 50 258 4.3 5.2 0.00 0.04 0.00 86 1015.5
20211205090510 50 247 4.3 4.3 0.00 0.04 0.00 86 1015.6
20211205090011 50 235 4.3 4.3 0.00 0.04 0.00 86 1015.7
20211205085511 50 228 3.5 5.2 0.00 0.04 0.00 85 1015.7
20211205085011 50 228 4.3 5.2 0.00 0.04 0.00 85 1015.7
20211205084511 51 219 4.3 5.2 0.00 0.04 0.00 84 1015.7
20211205084011 51 216 4.3 4.3 0.00 0.04 0.00 84 1015.8
20211205083510 52 192 4.3 4.3 0.00 0.04 0.00 84 1015.9
20211205083011 52 218 1.7 4.3 0.00 0.04 0.00 84 1015.8
20211205082510 52 146 3.5 4.3 0.00 0.04 0.00 83 1015.8
20211205082011 52 142 1.7 4.3 0.00 0.04 0.00 83 1015.8
20211205081511 52 129 3.5 4.3 0.00 0.04 0.00 82 1016.0
20211205081011 52 55 1.7 1.7 0.00 0.04 0.00 82 1016.0
20211205080511 52 51 1.7 1.7 0.00 0.04 0.00 82 1016.0
20211205080011 52 2 0.9 1.7 0.00 0.04 0.00 83 1016.0
20211205075511 52 12 0.9 1.7 0.00 0.04 0.00 82 1016.0
20211205075011 52 318 0.9 1.7 0.00 0.04 0.00 83 1016.1
20211205074511 52 271 0.9 2.6 0.00 0.04 0.00 84 1016.2
20211205074011 52 242 1.7 2.6 0.00 0.04 0.00 84 1016.2
20211205073511 52 201 2.6 2.6 0.00 0.04 0.00 84 1016.2
20211205073011 52 204 0.9 1.7 0.00 0.04 0.00 83 1016.3
20211205072511 52 172 1.7 2.6 0.00 0.04 0.00 83 1016.4
20211205072011 52 172 1.7 4.3 0.00 0.04 0.00 84 1016.4
20211205071511 52 168 2.6 4.3 0.00 0.04 0.00 84 1016.5
20211205071011 52 161 4.3 4.3 0.00 0.04 0.00 84 1016.5
20211205070512 52 160 3.5 3.5 0.00 0.04 0.00 84 1016.5
20211205070011 52 159 1.7 1.7 0.00 0.04 0.00 83 1016.6
20211205065511 52 176 1.7 2.6 0.00 0.04 0.00 83 1016.6
20211205065011 52 162 1.7 2.6 0.00 0.04 0.00 82 1016.6
20211205064511 53 229 1.7 3.5 0.00 0.04 0.00 82 1016.7
20211205064010 53 223 2.6 3.5 0.00 0.04 0.00 82 1016.8
20211205063511 53 212 1.7 3.5 0.00 0.04 0.00 82 1016.7
20211205063011 53 171 2.6 3.5 0.00 0.04 0.00 81 1016.8
20211205062511 53 260 1.7 4.3 0.00 0.04 0.00 80 1016.8
20211205062011 53 263 2.6 4.3 0.00 0.04 0.00 80 1016.9
20211205061511 53 282 2.6 5.2 0.00 0.04 0.00 81 1016.9
20211205061011 53 297 2.6 5.2 0.00 0.04 0.00 81 1016.9
20211205060511 53 283 5.2 5.2 0.00 0.04 0.00 81 1016.9
20211205060012 53 276 4.3 5.2 0.00 0.04 0.00 82 1017.0
20211205055511 53 270 3.5 3.5 0.00 0.04 0.04 82 1017.1
20211205055011 53 240 2.6 4.3 0.00 0.04 0.04 81 1017.1
20211205054511 53 260 2.6 4.3 0.00 0.04 0.04 81 1017.2
20211205054011 53 299 4.3 4.3 0.00 0.04 0.04 81 1017.2
20211205053511 53 311 3.5 4.3 0.00 0.04 0.04 81 1017.1
20211205053011 53 303 4.3 6.1 0.00 0.04 0.04 81 1017.2
20211205052511 53 309 6.1 6.1 0.00 0.04 0.04 81 1017.3
20211205052011 53 317 5.2 5.2 0.00 0.04 0.04 81 1017.4
20211205051511 53 312 4.3 5.2 0.00 0.04 0.04 81 1017.4
20211205051011 54 302 4.3 6.1 0.00 0.04 0.04 80 1017.4
20211205050511 54 296 4.3 6.1 0.00 0.04 0.04 80 1017.4
20211205050011 54 304 6.1 7.0 0.00 0.04 0.04 79 1017.4
20211205045511 54 288 6.1 7.0 0.00 0.04 0.04 79 1017.4
20211205045011 55 281 4.3 7.0 0.00 0.04 0.04 78 1017.5
20211205044511 55 284 6.1 7.0 0.00 0.04 0.04 78 1017.5
20211205044011 55 285 6.1 6.1 0.00 0.04 0.04 77 1017.5
20211205043511 56 282 4.3 7.0 0.00 0.04 0.04 77 1017.4
20211205043011 56 288 5.2 7.8 0.00 0.04 0.04 77 1017.5
20211205042511 56 292 6.1 7.8 0.00 0.04 0.04 76 1017.6
20211205042011 56 285 4.3 7.8 0.00 0.04 0.04 76 1017.7
20211205041511 57 286 6.1 7.8 0.00 0.04 0.04 76 1017.7
20211205041011 57 292 6.1 8.7 0.00 0.04 0.04 76 1017.7
20211205040511 57 290 7.0 8.7 0.00 0.04 0.04 76 1017.7
20211205040011 57 292 7.0 7.8 0.00 0.04 0.04 76 1017.8
20211205035511 57 299 7.8 9.6 0.00 0.04 0.04 76 1017.8
20211205035011 57 297 4.3 9.6 0.00 0.04 0.04 77 1017.8
20211205034511 57 305 6.1 8.7 0.00 0.04 0.04 76 1017.7
20211205034011 57 313 7.0 8.7 0.00 0.04 0.04 76 1017.7
20211205033511 57 297 6.1 8.7 0.00 0.04 0.04 74 1017.6
20211205033011 58 306 7.0 9.6 0.00 0.04 0.04 73 1017.6
20211205032511 58 300 6.1 9.6 0.00 0.04 0.04 72 1017.7
20211205032011 58 298 6.1 9.6 0.00 0.04 0.04 70 1017.7
20211205031511 59 301 7.0 9.6 0.00 0.04 0.04 69 1017.6
20211205031011 59 285 7.0 11.3 0.00 0.04 0.04 68 1017.7
20211205030511 59 287 7.0 11.3 0.00 0.04 0.04 69 1017.6
20211205030011 59 284 9.6 11.3 0.00 0.04 0.04 69 1017.6
20211205025511 59 291 10.4 11.3 0.00 0.04 0.04 69 1017.6
20211205025011 59 276 9.6 11.3 0.00 0.04 0.04 69 1017.6
20211205024511 59 281 7.0 9.6 0.00 0.04 0.04 72 1017.6
20211205024011 59 261 4.3 9.6 0.00 0.04 0.04 73 1017.7
20211205023511 59 291 6.1 7.0 0.00 0.04 0.04 73 1017.7
20211205023011 59 281 5.2 8.7 0.00 0.04 0.04 73 1017.7
20211205022511 59 289 5.2 10.4 0.00 0.04 0.04 73 1017.7
20211205022011 59 287 6.1 10.4 0.00 0.04 0.04 72 1017.6
20211205021511 59 279 6.1 10.4 0.00 0.04 0.04 72 1017.6
20211205021011 60 290 5.2 8.7 0.00 0.04 0.04 73 1017.6
20211205020511 60 280 6.1 7.8 0.00 0.04 0.04 73 1017.5
20211205020011 59 278 5.2 7.8 0.00 0.04 0.04 73 1017.5
20211205015511 59 278 7.0 7.8 0.00 0.04 0.04 73 1017.5
20211205015012 59 269 5.2 7.8 0.00 0.04 0.04 72 1017.5
20211205014511 60 279 7.0 7.8 0.00 0.04 0.04 72 1017.4
20211205014011 60 282 6.1 7.0 0.00 0.04 0.04 72 1017.4
20211205013511 60 273 5.2 6.1 0.00 0.04 0.04 72 1017.5
20211205013011 59 272 4.3 6.1 0.00 0.04 0.04 72 1017.4
20211205012511 59 274 4.3 7.0 0.00 0.04 0.04 72 1017.4
20211205012011 59 268 5.2 7.0 0.00 0.04 0.04 72 1017.4
20211205011511 60 269 5.2 7.0 0.00 0.04 0.04 71 1017.4
20211205011011 60 275 6.1 7.8 0.00 0.04 0.04 70 1017.3
20211205010511 60 289 5.2 8.7 0.00 0.04 0.04 70 1017.2
20211205010011 60 284 8.7 8.7 0.00 0.04 0.04 70 1017.2
20211205005511 60 272 6.1 7.8 0.00 0.04 0.04 69 1017.2
20211205005011 61 269 4.3 7.8 0.00 0.04 0.04 69 1017.2
20211205004511 61 262 5.2 7.8 0.00 0.04 0.04 68 1017.2
20211205004012 61 260 7.0 8.7 0.00 0.04 0.04 68 1017.1
20211205003511 62 269 5.2 8.7 0.00 0.04 0.04 67 1017.1
20211205003011 62 256 6.1 9.6 0.00 0.04 0.04 66 1017.1
20211205002511 62 261 7.8 9.6 0.00 0.04 0.04 65 1017.1
20211205002011 62 263 7.0 8.7 0.00 0.04 0.04 64 1017.1
20211205001511 63 259 7.0 8.7 0.00 0.04 0.04 64 1017.0
20211205001011 63 259 7.0 9.6 0.00 0.04 0.04 63 1016.9
20211205000541 64 267 9.6 9.6 0.00 0.04 0.04 62 1016.8
20211205000011 64 268 6.1 8.7 0.00 0.04 0.04 62 1016.9
20211204235511 64 262 7.8 8.7 0.00 0.04 0.04 61 1016.9
20211204235011 65 263 6.1 7.8 0.00 0.04 0.04 61 1016.8
20211204234511 65 265 6.1 7.8 0.00 0.04 0.04 60 1016.9
20211204234011 66 263 7.0 7.8 0.00 0.04 0.04 60 1016.9
20211204233512 66 257 6.1 8.7 0.00 0.04 0.04 61 1016.9
20211204233011 67 252 7.8 8.7 0.00 0.04 0.04 60 1016.8
20211204232512 68 239 7.0 9.6 0.00 0.04 0.04 59 1016.8
20211204232011 69 237 7.8 9.6 0.00 0.04 0.04 60 1016.6
20211204231512 70 211 7.0 9.6 0.00 0.04 0.04 63 1016.5
20211204231011 70 196 7.0 8.7 0.00 0.04 0.04 63 1016.5
20211204230511 70 195 7.0 8.7 0.00 0.04 0.04 62 1016.5
20211204230011 71 197 8.7 8.7 0.00 0.04 0.04 62 1016.5
20211204225511 70 190 6.1 7.0 0.00 0.04 0.04 64 1016.5
20211204225011 70 196 5.2 6.1 0.00 0.04 0.04 64 1016.5
20211204224511 70 194 4.3 6.1 0.00 0.04 0.04 64 1016.5
20211204224011 70 179 5.2 7.8 0.00 0.04 0.04 64 1016.5
20211204223512 71 187 3.5 8.7 0.00 0.04 0.04 63 1016.4
20211204223041 71 177 7.0 9.6 0.00 0.04 0.04 62 1016.4
20211204222511 71 180 7.8 9.6 0.00 0.04 0.04 62 1016.3
20211204222011 71 193 7.8 9.6 0.00 0.04 0.04 63 1016.3
20211204221511 71 193 7.0 7.8 0.00 0.04 0.04 63 1016.3
20211204221011 71 187 5.2 8.7 0.00 0.04 0.04 64 1016.4
20211204220511 71 203 7.8 9.6 0.00 0.04 0.04 63 1016.4
20211204220011 71 206 7.0 9.6 0.00 0.04 0.04 61 1016.4
20211204215542 71 206 6.1 12.2 0.00 0.04 0.04 62 1016.4
20211204215011 72 201 7.8 12.2 0.00 0.04 0.04 61 1016.3
20211204214511 72 213 11.3 12.2 0.00 0.04 0.04 60 1016.3
20211204214011 72 187 10.4 12.2 0.00 0.04 0.04 60 1016.2
20211204213511 72 171 5.2 9.6 0.00 0.04 0.04 62 1016.3
20211204213011 72 188 4.3 9.6 0.00 0.04 0.04 62 1016.3
20211204212512 73 166 7.8 9.6 0.00 0.04 0.04 60 1016.2
20211204212012 72 197 7.8 10.4 0.00 0.04 0.04 62 1016.3
20211204211511 72 189 8.7 11.3 0.00 0.04 0.04 61 1016.2
20211204211012 72 204 8.7 11.3 0.00 0.04 0.04 62 1016.2
20211204210511 72 216 10.4 10.4 0.00 0.04 0.04 61 1016.2
20211204210011 73 201 7.0 9.6 0.00 0.04 0.04 60 1016.1
20211204205511 73 213 4.3 7.8 0.00 0.04 0.04 60 1016.1
20211204205011 73 210 6.1 7.8 0.00 0.04 0.04 60 1016.1
20211204204511 73 226 7.8 9.6 0.00 0.04 0.04 60 1016.1
20211204204011 73 161 8.7 11.3 0.00 0.04 0.04 60 1016.2
20211204203511 73 208 9.6 11.3 0.00 0.04 0.04 61 1016.2
20211204203011 73 190 7.8 9.6 0.00 0.04 0.04 62 1016.1
20211204202512 72 193 6.1 9.6 0.00 0.04 0.04 62 1016.1
20211204202011 72 205 6.1 7.8 0.00 0.04 0.04 63 1016.2
20211204201511 72 185 5.2 8.7 0.00 0.04 0.04 64 1016.2
20211204201011 72 238 6.1 8.7 0.00 0.04 0.04 63 1016.3
20211204200511 72 219 5.2 10.4 0.00 0.04 0.04 65 1016.3
20211204200011 72 231 7.8 10.4 0.00 0.04 0.04 65 1016.3
20211204195511 71 220 5.2 10.4 0.00 0.04 0.04 68 1016.3
20211204195011 71 131 1.7 10.4 0.00 0.04 0.04 69 1016.5
20211204194511 71 84 8.7 10.4 0.00 0.04 0.04 76 1016.4
20211204194011 70 71 6.1 7.8 0.00 0.04 0.04 75 1016.5
20211204193511 70 91 7.0 7.8 0.00 0.04 0.04 76 1016.6
20211204193011 70 114 6.1 8.7 0.00 0.04 0.04 75 1016.7
20211204192511 70 92 6.1 8.7 0.00 0.04 0.04 76 1016.7
20211204192012 70 108 6.1 9.6 0.00 0.04 0.04 76 1016.7
20211204191512 70 97 7.8 9.6 0.00 0.04 0.04 76 1016.7
20211204191011 70 113 6.1 9.6 0.00 0.04 0.04 76 1016.8
20211204190512 70 91 7.0 8.7 0.00 0.04 0.04 77 1016.9
20211204190011 69 99 7.8 8.7 0.00 0.04 0.04 77 1016.9
20211204185511 69 104 7.8 8.7 0.00 0.04 0.04 78 1017.0
20211204185011 69 77 6.1 9.6 0.00 0.04 0.04 79 1017.0
20211204184511 69 90 6.1 9.6 0.00 0.04 0.04 79 1017.0
20211204184012 69 86 7.8 7.8 0.00 0.04 0.04 78 1017.0
20211204183511 69 91 5.2 8.7 0.00 0.04 0.04 79 1017.1
20211204183012 69 93 6.1 9.6 0.00 0.04 0.04 79 1017.2
20211204182511 68 96 7.8 9.6 0.00 0.04 0.04 79 1017.2
20211204182011 68 84 7.8 9.6 0.00 0.04 0.04 81 1017.3
20211204181511 67 78 7.0 9.6 0.00 0.04 0.04 82 1017.4
20211204181011 67 78 6.1 7.0 0.00 0.04 0.04 82 1017.5
20211204180511 67 79 6.1 8.7 0.00 0.04 0.04 83 1017.6
20211204180011 66 104 7.8 9.6 0.00 0.04 0.04 83 1017.7
20211204175512 66 85 7.8 9.6 0.00 0.04 0.04 84 1017.8
20211204175011 66 97 8.7 10.4 0.00 0.04 0.04 84 1017.8
20211204174511 66 90 9.6 10.4 0.00 0.04 0.04 84 1017.9
20211204174012 66 99 8.7 10.4 0.00 0.04 0.04 84 1018.0
20211204173511 66 80 7.8 9.6 0.00 0.04 0.04 84 1018.1
20211204173011 66 100 9.6 9.6 0.00 0.04 0.04 84 1018.2
20211204172511 66 94 9.6 9.6 0.00 0.04 0.04 82 1018.2
20211204172012 67 84 7.0 9.6 0.00 0.04 0.04 81 1018.2
20211204171511 69 99 5.2 7.0 0.00 0.04 0.04 77 1018.2
20211204171012 69 161 5.2 7.0 0.00 0.04 0.04 74 1018.3
20211204170511 69 142 7.0 7.8 0.00 0.04 0.04 76 1018.3
20211204170011 69 123 7.8 7.8 0.00 0.04 0.04 76 1018.4
20211204165541 68 124 5.2 6.1 0.00 0.04 0.04 76 1018.4
20211204165012 69 145 5.2 6.1 0.00 0.04 0.04 74 1018.4
20211204164511 69 164 5.2 6.1 0.00 0.04 0.04 74 1018.5
20211204164011 69 155 4.3 6.1 0.00 0.04 0.04 74 1018.4
20211204163511 68 118 4.3 6.1 0.00 0.04 0.04 75 1018.4
20211204163011 68 119 6.1 6.1 0.00 0.04 0.04 75 1018.4
20211204162511 68 140 3.5 6.1 0.00 0.04 0.04 76 1018.3
20211204162011 67 156 2.6 6.1 0.00 0.04 0.04 77 1018.3
20211204161511 66 204 2.6 7.0 0.00 0.04 0.04 79 1018.3
20211204161012 66 165 5.2 7.8 0.00 0.04 0.04 79 1018.2
20211204160511 66 165 6.1 8.7 0.00 0.04 0.04 79 1018.2
20211204160011 66 160 8.7 8.7 0.00 0.04 0.04 77 1018.2
20211204155511 66 173 7.0 8.7 0.00 0.04 0.04 76 1018.2
20211204155011 66 163 8.7 9.6 0.00 0.04 0.04 76 1018.2
20211204154511 65 178 6.1 9.6 0.00 0.04 0.04 77 1018.2
20211204154013 65 174 7.8 9.6 0.00 0.04 0.04 77 1018.2
20211204153512 65 179 6.1 7.8 0.00 0.04 0.04 77 1018.2
20211204153012 65 173 6.1 7.0 0.00 0.04 0.04 79 1017.9
20211204152511 64 137 4.3 6.1 0.00 0.04 0.04 81 1018.0
20211204152011 64 126 4.3 4.3 0.00 0.04 0.04 83 1017.9
20211204151511 63 144 2.6 4.3 0.00 0.04 0.04 85 1017.9
20211204151012 62 157 2.6 4.3 0.00 0.04 0.04 88 1018.0
20211204150512 61 117 0.9 6.1 0.00 0.04 0.04 88 1017.9
20211204150012 61 77 3.5 6.1 0.00 0.04 0.04 87 1017.9
20211204145512 62 61 5.2 5.2 0.00 0.04 0.04 86 1017.8
20211204145011 62 86 3.5 4.3 0.00 0.04 0.04 87 1017.8
20211204144511 61 109 2.6 7.0 0.00 0.04 0.04 87 1017.7
20211204144012 60 86 3.5 7.0 0.00 0.04 0.04 87 1017.7
20211204143511 60 79 6.1 6.1 0.00 0.04 0.04 86 1017.7
20211204143012 61 38 3.5 4.3 0.00 0.04 0.04 85 1017.7
20211204142511 60 80 2.6 3.5 0.00 0.04 0.04 86 1017.6
20211204142011 60 99 1.7 3.5 0.00 0.04 0.04 86 1017.6
20211204141511 59 102 3.5 3.5 0.00 0.04 0.04 85 1017.5
20211204141012 59 71 3.5 3.5 0.00 0.04 0.04 84 1017.4
20211204140541 60 49 2.6 3.5 0.00 0.04 0.04 82 1017.4
20211204140012 61 110 2.6 3.5 0.00 0.04 0.04 83 1017.3
20211204135512 60 112 2.6 4.3 0.00 0.04 0.04 83 1017.2
20211204135011 60 72 1.7 4.3 0.00 0.04 0.04 83 1017.2
20211204134511 60 28 3.5 3.5 0.00 0.04 0.04 81 1017.1
20211204134012 61 20 2.6 5.2 0.00 0.04 0.04 83 1017.0
20211204133511 60 16 3.5 5.2 0.00 0.04 0.04 85 1016.9
20211204133012 60 16 4.3 4.3 0.00 0.04 0.04 80 1016.9
20211204132512 61 232 1.7 3.5 0.00 0.04 0.04 83 1016.7
20211204132011 62 226 2.6 4.3 0.00 0.04 0.04 82 1016.6
20211204131512 62 221 3.5 4.3 0.00 0.04 0.04 82 1016.5
20211204131012 62 212 3.5 4.3 0.00 0.04 0.04 81 1016.5
20211204130512 62 199 3.5 3.5 0.00 0.04 0.04 80 1016.5
20211204130012 62 188 2.6 2.6 0.00 0.04 0.04 79 1016.5
20211204125512 62 189 2.6 2.6 0.00 0.04 0.04 78 1016.5
20211204125012 62 238 2.6 5.2 0.00 0.04 0.04 77 1016.5
20211204124512 63 253 2.6 5.2 0.00 0.04 0.04 75 1016.5
20211204124011 64 197 5.2 5.2 0.00 0.04 0.04 74 1016.5
20211204123512 64 180 4.3 4.3 0.00 0.04 0.04 74 1016.5
20211204123012 64 154 2.6 3.5 0.00 0.04 0.04 73 1016.5
20211204122512 64 87 0.9 3.5 0.00 0.04 0.04 74 1016.5
20211204122011 64 66 3.5 3.5 0.00 0.04 0.04 75 1016.5
20211204121512 64 62 1.7 4.3 0.00 0.04 0.04 73 1016.5
20211204121011 64 38 2.6 4.3 0.00 0.04 0.04 73 1016.5
20211204120512 66 71 4.3 6.1 0.00 0.04 0.04 68 1016.5
20211204120012 67 158 4.3 7.0 0.00 0.04 0.04 61 1016.4
20211204115512 68 177 5.2 7.0 0.00 0.04 0.04 58 1016.4
20211204115011 69 192 5.2 6.1 0.00 0.04 0.04 57 1016.3
20211204114512 69 198 5.2 7.0 0.00 0.04 0.04 57 1016.2
20211204114011 69 190 6.1 7.8 0.00 0.04 0.04 58 1016.1
20211204113512 69 203 7.0 7.8 0.00 0.04 0.04 57 1016.2
20211204113012 69 193 7.0 8.7 0.00 0.04 0.04 60 1016.1
20211204112512 67 203 7.8 8.7 0.00 0.04 0.04 64 1016.1
20211204112012 67 198 8.7 8.7 0.00 0.04 0.04 68 1016.0
20211204111512 67 225 7.0 8.7 0.00 0.04 0.04 66 1015.8
20211204111012 69 232 6.1 7.8 0.02 0.04 0.04 64 1015.8